| time (UTC) | temp C | wind direction | speed KPH | gust KPH | rain 1hr cm | rain 24hr cm | rain mn cm | humidity % | barometer mb |
| 20260505194508 | 12 | 274 | 24.1 | 0.0 | 0.00 | 0.03 | 0.03 | 35 | 980.0 |
| 20260505193023 | 12 | 268 | 22.5 | 0.0 | 0.00 | 0.03 | 0.03 | 35 | 980.0 |
| 20260505191511 | 12 | 267 | 22.5 | 0.0 | 0.00 | 0.03 | 0.03 | 35 | 980.0 |
| 20260505190027 | 12 | 267 | 22.5 | 0.0 | 0.00 | 0.03 | 0.03 | 35 | 980.0 |
| 20260505184512 | 12 | 266 | 22.5 | 0.0 | 0.00 | 0.03 | 0.03 | 33 | 980.6 |
| 20260505183029 | 13 | 271 | 22.5 | 0.0 | 0.00 | 0.03 | 0.03 | 36 | 979.9 |
| 20260505181511 | 13 | 274 | 20.9 | 0.0 | 0.00 | 0.03 | 0.03 | 36 | 979.9 |
| 20260505180031 | 13 | 271 | 22.5 | 0.0 | 0.00 | 0.03 | 0.03 | 36 | 979.9 |
| 20260505174512 | 13 | 268 | 22.5 | 0.0 | 0.00 | 0.03 | 0.03 | 36 | 979.2 |
| 20260505173023 | 12 | 274 | 20.9 | 0.0 | 0.00 | 0.03 | 0.03 | 36 | 978.4 |
| 20260505171512 | 12 | 281 | 20.9 | 0.0 | 0.00 | 0.03 | 0.03 | 36 | 978.4 |
| 20260505170028 | 12 | 280 | 20.9 | 0.0 | 0.00 | 0.03 | 0.03 | 36 | 978.4 |
| 20260505164512 | 12 | 279 | 20.9 | 0.0 | 0.00 | 0.03 | 0.03 | 43 | 979.1 |
| 20260505163028 | 11 | 278 | 20.9 | 0.0 | 0.00 | 0.03 | 0.03 | 45 | 977.4 |
| 20260505161512 | 10 | 273 | 19.3 | 0.0 | 0.00 | 0.03 | 0.03 | 45 | 977.4 |
| 20260505153029 | 10 | 278 | 20.9 | 0.0 | 0.00 | 0.03 | 0.03 | 49 | 978.2 |
| 20260505151512 | 10 | 280 | 22.5 | 0.0 | 0.00 | 0.03 | 0.03 | 49 | 978.2 |
| 20260505124511 | 10 | 308 | 14.5 | 0.0 | 0.00 | 0.00 | 0.00 | 73 | 977.0 |
| 20260505123029 | 10 | 295 | 14.5 | 0.0 | 0.00 | 0.00 | 0.00 | 73 | 975.6 |
| 20260505121512 | 10 | 297 | 16.1 | 0.0 | 0.00 | 0.00 | 0.00 | 73 | 975.6 |
| 20260505120035 | 9 | 282 | 17.7 | 0.0 | 0.00 | 0.00 | 0.00 | 73 | 975.6 |
| 20260505114512 | 9 | 276 | 16.1 | 0.0 | 0.00 | 0.00 | 0.00 | 71 | 975.6 |
| 20260505113025 | 9 | 268 | 16.1 | 0.0 | 0.00 | 0.00 | 0.00 | 68 | 974.2 |
| 20260505111511 | 9 | 262 | 14.5 | 0.0 | 0.00 | 0.00 | 0.00 | 68 | 974.2 |
| 20260505101511 | 10 | 260 | 17.7 | 0.0 | 0.00 | 0.00 | 0.00 | 59 | 972.7 |
| 20260505100035 | 10 | 262 | 17.7 | 0.0 | 0.00 | 0.00 | 0.00 | 59 | 972.7 |
| 20260505094511 | 10 | 265 | 16.1 | 0.0 | 0.00 | 0.00 | 0.00 | 70 | 972.9 |
| 20260505093030 | 10 | 264 | 12.9 | 0.0 | 0.00 | 0.00 | 0.00 | 75 | 972.7 |
| 20260505091511 | 11 | 256 | 19.3 | 0.0 | 0.00 | 0.00 | 0.00 | 75 | 972.6 |
| 20260505090036 | 10 | 246 | 11.3 | 0.0 | 0.00 | 0.00 | 0.00 | 75 | 972.6 |
| 20260505084509 | 11 | 262 | 14.5 | 0.0 | 0.00 | 0.00 | 0.00 | 76 | 973.0 |
| 20260505083027 | 11 | 262 | 14.5 | 0.0 | 0.00 | 0.00 | 0.00 | 83 | 972.3 |
| 20260505081511 | 11 | 258 | 16.1 | 0.0 | 0.00 | 0.00 | 0.00 | 83 | 972.3 |
| 20260505080033 | 12 | 253 | 16.1 | 0.0 | 0.00 | 0.00 | 0.00 | 73 | 972.6 |
| 20260505074511 | 12 | 246 | 16.1 | 0.0 | 0.00 | 0.00 | 0.00 | 76 | 971.8 |
| 20260505073030 | 12 | 240 | 14.5 | 0.0 | 0.00 | 0.00 | 0.00 | 76 | 971.8 |
| 20260505071512 | 12 | 232 | 17.7 | 0.0 | 0.00 | 0.00 | 0.00 | 76 | 971.9 |
| 20260505070033 | 13 | 230 | 17.7 | 0.0 | 0.00 | 0.00 | 0.00 | 76 | 971.9 |
| 20260505064511 | 13 | 247 | 16.1 | 0.0 | 0.00 | 0.00 | 0.00 | 77 | 972.4 |
| 20260505063024 | 13 | 236 | 17.7 | 0.0 | 0.00 | 0.00 | 0.00 | 76 | 971.8 |
| 20260505061512 | 13 | 236 | 16.1 | 0.0 | 0.00 | 0.00 | 0.00 | 76 | 971.8 |
| 20260505060035 | 14 | 237 | 14.5 | 0.0 | 0.00 | 0.00 | 0.00 | 76 | 971.8 |
| 20260505054512 | 14 | 241 | 17.7 | 0.0 | 0.00 | 0.00 | 0.00 | 74 | 972.8 |
| 20260505053030 | 14 | 228 | 19.3 | 0.0 | 0.00 | 0.00 | 0.00 | 63 | 971.6 |
| 20260505051511 | 15 | 225 | 19.3 | 0.0 | 0.00 | 0.00 | 0.00 | 63 | 971.7 |
| 20260505041511 | 16 | 206 | 22.5 | 0.0 | 0.00 | 0.00 | 0.00 | 63 | 971.8 |
| 20260505040034 | 16 | 203 | 25.7 | 0.0 | 0.00 | 0.00 | 0.00 | 63 | 971.8 |
| 20260505034508 | 16 | 211 | 22.5 | 0.0 | 0.00 | 0.00 | 0.00 | 61 | 971.4 |
| 20260505033029 | 16 | 192 | 25.7 | 0.0 | 0.00 | 0.00 | 0.00 | 58 | 971.3 |
| 20260505031511 | 16 | 204 | 24.1 | 0.0 | 0.00 | 0.00 | 0.00 | 58 | 971.3 |
| 20260505030034 | 16 | 212 | 22.5 | 0.0 | 0.00 | 0.00 | 0.00 | 58 | 971.3 |
| 20260505024511 | 17 | 206 | 24.1 | 0.0 | 0.00 | 0.00 | 0.00 | 53 | 971.7 |
| 20260505023029 | 17 | 218 | 25.7 | 0.0 | 0.00 | 0.00 | 0.00 | 57 | 971.8 |
| 20260505021511 | 17 | 216 | 27.4 | 0.0 | 0.00 | 0.00 | 0.00 | 57 | 971.8 |
| 20260505020033 | 17 | 207 | 25.7 | 0.0 | 0.00 | 0.00 | 0.00 | 57 | 971.8 |
| 20260505014511 | 17 | 212 | 24.1 | 0.0 | 0.00 | 0.00 | 0.00 | 61 | 970.9 |
| 20260505013027 | 18 | 213 | 25.7 | 0.0 | 0.00 | 0.00 | 0.00 | 61 | 970.9 |
| 20260505011512 | 17 | 219 | 24.1 | 0.0 | 0.00 | 0.00 | 0.00 | 61 | 970.8 |
| 20260505010031 | 17 | 205 | 24.1 | 0.0 | 0.00 | 0.00 | 0.00 | 61 | 970.8 |
| 20260505004511 | 18 | 207 | 17.7 | 0.0 | 0.00 | 0.00 | 0.00 | 38 | 971.4 |
| 20260505003027 | 19 | 207 | 17.7 | 0.0 | 0.00 | 0.00 | 0.00 | 43 | 972.2 |
| 20260505001510 | 20 | 205 | 12.9 | 0.0 | 0.00 | 0.00 | 0.00 | 43 | 972.1 |
| 20260505000029 | 20 | 214 | 9.7 | 0.0 | 0.00 | 0.00 | 0.00 | 43 | 972.1 |
| 20260504234510 | 21 | 229 | 11.3 | 0.0 | 0.00 | 0.00 | 0.00 | 33 | 972.0 |
| 20260504233027 | 21 | 245 | 14.5 | 0.0 | 0.00 | 0.00 | 0.00 | 33 | 971.9 |
| 20260504231509 | 21 | 253 | 17.7 | 0.0 | 0.00 | 0.00 | 0.00 | 33 | 971.9 |
| 20260504230031 | 22 | 257 | 20.9 | 0.0 | 0.00 | 0.00 | 0.00 | 33 | 971.9 |
| 20260504224510 | 22 | 257 | 24.1 | 0.0 | 0.00 | 0.00 | 0.00 | 36 | 971.5 |
| 20260504223029 | 22 | 255 | 27.4 | 0.0 | 0.00 | 0.00 | 0.00 | 37 | 971.9 |
| 20260504221510 | 22 | 249 | 29.0 | 0.0 | 0.00 | 0.00 | 0.00 | 37 | 971.9 |
| 20260504220034 | 22 | 248 | 29.0 | 0.0 | 0.00 | 0.00 | 0.00 | 37 | 971.9 |
| 20260504214509 | 22 | 249 | 27.4 | 0.0 | 0.00 | 0.00 | 0.00 | 37 | 973.0 |
| 20260504213029 | 22 | 253 | 27.4 | 0.0 | 0.00 | 0.00 | 0.00 | 37 | 973.0 |
| 20260504211509 | 22 | 251 | 30.6 | 0.0 | 0.00 | 0.00 | 0.00 | 36 | 972.0 |
| 20260504210032 | 22 | 248 | 32.2 | 0.0 | 0.00 | 0.00 | 0.00 | 36 | 972.0 |
| 20260504204514 | 22 | 241 | 32.2 | 0.0 | 0.00 | 0.00 | 0.00 | 38 | 972.7 |
| 20260504203022 | 23 | 240 | 30.6 | 0.0 | 0.00 | 0.00 | 0.00 | 38 | 972.7 |
| 20260504201515 | 23 | 239 | 29.0 | 0.0 | 0.00 | 0.00 | 0.00 | 38 | 972.7 |
| 20260504200029 | 23 | 227 | 30.6 | 0.0 | 0.00 | 0.00 | 0.00 | 39 | 971.9 |